GRARBER Weather Reports


Display with metric or nautical units.
time (UTC)temp
F
wind
direction
speed
MPH
gust
MPH
rain 1hr
in
rain 24hr
in
rain mn
in
humidity
%
barometer
mb
20260508101855 45 340 3.0 0.0 0.00 0.00 0.00 75
20260508091654 41 320 3.0 0.0 0.00 0.00 0.00 80
20260508081655 41 280 2.0 0.0 0.00 0.00 0.00 86
20260508071756 39 290 2.0 0.0 0.00 0.00 0.00 86
20260508061655 36 340 1.0 0.0 0.00 0.00 0.00 93
20260508051655 36 340 6.0 0.0 0.00 0.00 0.00 99
20260508041855 34 320 6.0 0.0 0.00 0.00 0.00 93
20260508031655 34 320 8.0 0.0 0.00 0.00 0.00 99
20260508021656 36 280 9.0 0.0 0.00 0.00 0.00 93
20260508011755 36 260 12.0 0.0 0.00 0.00 0.00 99
20260508001655 36 250 12.0 0.0 0.00 0.00 0.00 99
20260507231655 36 240 13.0 0.0 0.00 0.00 0.00 99
20260507221955 36 250 12.0 0.0 0.00 0.00 0.00 99
20260507211655 36 250 12.0 0.0 0.00 0.00 0.00 99
20260507201656 37 260 12.0 0.0 0.00 0.00 0.00 99
20260507191756 37 260 13.0 0.0 0.00 0.00 0.00 99
20260507181655 37 260 10.0 0.0 0.00 0.00 0.00 99
20260507171654 37 260 13.0 0.0 0.00 0.00 0.00 99
20260507161956 39 260 12.0 18.0 0.00 0.00 0.00 99
20260507151655 39 250 15.0 22.0 0.00 0.00 0.00 99
20260507141655 39 250 16.0 24.0 0.00 0.00 0.00 99
20260507131755 39 230 17.0 25.0 0.00 0.00 0.00 99
20260507121655 39 240 20.0 0.0 0.00 0.00 0.00 99
20260507111655 39 210 12.0 21.0 0.00 0.00 0.00 99